When you browse on this site, cookies collect data to enhance your experience and personalize the content and advertising you see.
Visit our Privacy Policy to learn more. By continuing to use the site, you agree to this use of cookies and data.
  • In France
  • List of Countries
  • For 7 days
  • Water Temperature
  • Satellite Maps
  • Weather Map
  • Weather Widgets
  • user-avatar
    Login

    Hourly Weather Arteaga

    Today, 19 July, Friday

    Time Temperature Precipitation Wind Pressure Humidity
    00:00 +20°C° 0 mm 1 mps 660 mmHg 83%
    01:00 +19°C° 0 mm 1 mps 660 mmHg 81%
    02:00 +19°C° 0 mm 1 mps 659 mmHg 80%
    03:00 +19°C° 0 mm 1 mps 659 mmHg 79%
    04:00 +19°C° 0 mm 1 mps 659 mmHg 79%
    05:00 +19°C° 0 mm 1 mps 659 mmHg 79%
    06:00 +21°C° 0 mm 1 mps 660 mmHg 76%
    07:00 +22°C° 0 mm 1 mps 661 mmHg 74%
    08:00 +24°C° 0 mm 1 mps 661 mmHg 71%
    09:00 +26°C° 0 mm 1 mps 662 mmHg 65%
    10:00 +28°C° 0 mm 1 mps 662 mmHg 58%
    11:00 +30°C° 0 mm 1 mps 662 mmHg 52%
    12:00 +29°C° 1.2 mm 1 mps 662 mmHg 58%
    13:00 +28°C° 1.2 mm 1 mps 661 mmHg 65%
    14:00 +27°C° 1.2 mm 1 mps 660 mmHg 72%
    15:00 +26°C° 2.1 mm 1 mps 660 mmHg 77%
    16:00 +25°C° 2.1 mm 1 mps 659 mmHg 83%
    17:00 +24°C° 2.1 mm 1 mps 659 mmHg 89%
    18:00 +22°C° 1.6 mm 1 mps 659 mmHg 91%
    19:00 +21°C° 1.6 mm 1 mps 659 mmHg 93%
    20:00 +20°C° 1.6 mm 1 mps 660 mmHg 95%
    21:00 +20°C° 1.3 mm 1 mps 660 mmHg 96%
    22:00 +20°C° 1.3 mm 1 mps 660 mmHg 96%
    23:00 +20°C° 1.3 mm 1 mps 661 mmHg 97%

    Tomorrow, 20 July, Saturday

    Time Temperature Precipitation Wind Pressure Humidity
    00:00 +19°C° 1.4 mm 1 mps 660 mmHg 98%
    01:00 +19°C° 1.4 mm 1 mps 660 mmHg 98%
    02:00 +17°C° 1.4 mm 0 mps 660 mmHg 98%
    03:00 +19°C° 2.5 mm 1 mps 660 mmHg 98%
    04:00 +19°C° 2.5 mm 1 mps 659 mmHg 98%
    05:00 +19°C° 2.5 mm 1 mps 659 mmHg 98%
    06:00 +19°C° 2.1 mm 1 mps 660 mmHg 98%
    07:00 +19°C° 2.1 mm 1 mps 660 mmHg 98%
    08:00 +19°C° 2.1 mm 1 mps 660 mmHg 97%
    09:00 +20°C° 0.2 mm 1 mps 660 mmHg 93%
    10:00 +22°C° 0.2 mm 1 mps 661 mmHg 88%
    11:00 +23°C° 0.2 mm 1 mps 661 mmHg 83%
    12:00 +24°C° 0 mm 1 mps 660 mmHg 79%
    13:00 +24°C° 0 mm 1 mps 660 mmHg 75%
    14:00 +25°C° 0 mm 1 mps 660 mmHg 71%
    15:00 +25°C° 0.4 mm 1 mps 659 mmHg 75%
    16:00 +25°C° 0.4 mm 1 mps 659 mmHg 79%
    17:00 +22°C° 0.4 mm 0 mps 659 mmHg 83%
    18:00 +21°C° 0.9 mm 0 mps 659 mmHg 86%
    19:00 +20°C° 0.9 mm 0 mps 659 mmHg 88%
    20:00 +19°C° 0.9 mm 0 mps 659 mmHg 90%
    21:00 +18°C° 0.1 mm 0 mps 659 mmHg 90%
    22:00 +18°C° 0.1 mm 0 mps 660 mmHg 90%
    23:00 +17°C° 0.1 mm 0 mps 660 mmHg 89%

    Day after tomorrow, 21 July, Sunday

    Time Temperature Precipitation Wind Pressure Humidity
    00:00 +19°C° 0.2 mm 1 mps 659 mmHg 90%
    01:00 +19°C° 0.2 mm 1 mps 659 mmHg 90%
    02:00 +19°C° 0.2 mm 1 mps 659 mmHg 90%
    03:00 +19°C° 0 mm 1 mps 659 mmHg 90%
    04:00 +18°C° 0 mm 1 mps 659 mmHg 90%
    05:00 +18°C° 0 mm 1 mps 659 mmHg 91%
    06:00 +20°C° 0 mm 1 mps 660 mmHg 88%
    07:00 +21°C° 0 mm 1 mps 661 mmHg 85%
    08:00 +23°C° 0 mm 1 mps 661 mmHg 82%
    09:00 +24°C° 0.4 mm 1 mps 662 mmHg 78%
    10:00 +26°C° 0.4 mm 1 mps 662 mmHg 73%
    11:00 +27°C° 0.4 mm 1 mps 662 mmHg 69%
    12:00 +27°C° 0.5 mm 1 mps 662 mmHg 67%
    13:00 +28°C° 0.5 mm 1 mps 662 mmHg 65%
    14:00 +28°C° 0.5 mm 1 mps 661 mmHg 63%
    15:00 +27°C° 0.3 mm 1 mps 661 mmHg 68%
    16:00 +25°C° 0.3 mm 0 mps 660 mmHg 72%
    17:00 +24°C° 0.3 mm 0 mps 660 mmHg 77%
    18:00 +24°C° 0.4 mm 1 mps 660 mmHg 81%
    19:00 +22°C° 0.4 mm 1 mps 659 mmHg 84%
    20:00 +21°C° 0.4 mm 1 mps 659 mmHg 88%
    21:00 +21°C° 0 mm 1 mps 660 mmHg 87%
    22:00 +21°C° 0 mm 1 mps 660 mmHg 85%
    23:00 +20°C° 0 mm 1 mps 660 mmHg 84%

    22 July, Monday

    Time Temperature Precipitation Wind Pressure Humidity
    00:00 +20°C° 0 mm 1 mps 660 mmHg 82%
    01:00 +20°C° 0 mm 1 mps 659 mmHg 81%
    02:00 +21°C° 0 mm 1 mps 659 mmHg 79%
    03:00 +20°C° 0.1 mm 1 mps 659 mmHg 80%
    04:00 +20°C° 0.1 mm 1 mps 659 mmHg 80%
    05:00 +20°C° 0.1 mm 1 mps 659 mmHg 80%
    06:00 +21°C° 0 mm 1 mps 660 mmHg 78%
    07:00 +21°C° 0 mm 0 mps 661 mmHg 75%
    08:00 +23°C° 0 mm 0 mps 662 mmHg 73%
    09:00 +24°C° 0.2 mm 0 mps 662 mmHg 70%
    10:00 +27°C° 0.2 mm 1 mps 662 mmHg 67%
    11:00 +29°C° 0.2 mm 1 mps 662 mmHg 64%
    12:00 +28°C° 1.3 mm 1 mps 662 mmHg 66%
    13:00 +28°C° 1.3 mm 1 mps 661 mmHg 69%
    14:00 +28°C° 1.3 mm 1 mps 660 mmHg 71%
    15:00 +27°C° 1.1 mm 1 mps 660 mmHg 75%
    16:00 +26°C° 1.1 mm 1 mps 660 mmHg 79%
    17:00 +26°C° 1.1 mm 1 mps 659 mmHg 83%
    18:00 +24°C° 0.5 mm 1 mps 659 mmHg 84%
    19:00 +23°C° 0.5 mm 1 mps 659 mmHg 86%
    20:00 +21°C° 0.5 mm 1 mps 659 mmHg 88%
    21:00 +21°C° 0.6 mm 1 mps 660 mmHg 87%
    22:00 +21°C° 0.6 mm 1 mps 660 mmHg 87%
    23:00 +20°C° 0.6 mm 1 mps 660 mmHg 87%

    23 July, Tuesday

    Time Temperature Precipitation Wind Pressure Humidity
    00:00 +20°C° 0.8 mm 1 mps 660 mmHg 87%
    01:00 +18°C° 0.8 mm 0 mps 659 mmHg 88%
    02:00 +18°C° 0.8 mm 0 mps 659 mmHg 89%
    03:00 +18°C° 0.8 mm 0 mps 659 mmHg 90%
    04:00 +18°C° 0.8 mm 0 mps 659 mmHg 92%
    05:00 +17°C° 0.8 mm 0 mps 659 mmHg 93%
    06:00 +18°C° 0.4 mm 0 mps 660 mmHg 92%
    07:00 +21°C° 0.4 mm 1 mps 661 mmHg 91%
    08:00 +22°C° 0.4 mm 1 mps 662 mmHg 90%
    09:00 +24°C° 0.2 mm 1 mps 662 mmHg 83%
    10:00 +25°C° 0.2 mm 1 mps 662 mmHg 76%
    11:00 +26°C° 0.2 mm 1 mps 662 mmHg 69%
    12:00 +26°C° 0.9 mm 1 mps 662 mmHg 72%
    13:00 +26°C° 0.9 mm 1 mps 661 mmHg 75%
    14:00 +26°C° 0.9 mm 1 mps 660 mmHg 77%
    15:00 +25°C° 1.9 mm 1 mps 660 mmHg 82%
    16:00 +24°C° 1.9 mm 1 mps 660 mmHg 86%
    17:00 +24°C° 1.9 mm 1 mps 659 mmHg 90%
    18:00 +23°C° 1.3 mm 1 mps 660 mmHg 91%
    19:00 +22°C° 1.3 mm 1 mps 660 mmHg 93%
    20:00 +19°C° 1.3 mm 0 mps 660 mmHg 95%
    21:00 +20°C° 0.9 mm 1 mps 660 mmHg 95%
    22:00 +20°C° 0.9 mm 1 mps 660 mmHg 96%
    23:00 +20°C° 0.9 mm 1 mps 660 mmHg 96%

    24 July, Wednesday

    Time Temperature Precipitation Wind Pressure Humidity
    00:00 +20°C° 0.3 mm 1 mps 660 mmHg 95%
    01:00 +20°C° 0.3 mm 1 mps 660 mmHg 94%
    02:00 +19°C° 0.3 mm 1 mps 659 mmHg 94%
    03:00 +19°C° 0 mm 1 mps 659 mmHg 92%
    04:00 +17°C° 0 mm 0 mps 660 mmHg 91%
    05:00 +17°C° 0 mm 0 mps 660 mmHg 90%
    06:00 +20°C° 0 mm 1 mps 660 mmHg 89%
    07:00 +21°C° 0 mm 1 mps 661 mmHg 88%
    08:00 +21°C° 0 mm 1 mps 661 mmHg 87%
    09:00 +23°C° 0 mm 1 mps 662 mmHg 80%
    10:00 +25°C° 0 mm 1 mps 662 mmHg 73%
    11:00 +26°C° 0 mm 1 mps 662 mmHg 67%
    12:00 +26°C° 0.7 mm 1 mps 661 mmHg 70%
    13:00 +26°C° 0.7 mm 1 mps 661 mmHg 74%
    14:00 +26°C° 0.7 mm 1 mps 660 mmHg 77%
    15:00 +25°C° 1 mm 1 mps 660 mmHg 82%
    16:00 +24°C° 1 mm 1 mps 660 mmHg 86%
    17:00 +23°C° 1 mm 1 mps 659 mmHg 91%
    18:00 +22°C° 0.9 mm 1 mps 660 mmHg 92%
    19:00 +21°C° 0.9 mm 1 mps 660 mmHg 94%
    20:00 +18°C° 0.9 mm 0 mps 660 mmHg 96%
    21:00 +18°C° 0.5 mm 0 mps 660 mmHg 95%
    22:00 +20°C° 0.5 mm 1 mps 660 mmHg 95%
    23:00 +20°C° 0.5 mm 1 mps 661 mmHg 95%
    Show more